Starlink 32850

operational
NORAD ID: 62950 Int'l Des: 2025-029 Owner: SPXS Country: US Constellation: starlink
LEOCIRCULAR

Über Starlink 32850

Beschreibung wird geladen...

Live-Position

3D-Globus wird geladen...

Nächste Überflüge

Höhenverlauf

Altitude vs Time

uPlot chart will show altitude changes over time

Zweizeiliger Elementsatz

1 62950U 25029C 26035.28957710 .00017119 00000-0 58887-3 0 9993
2 62950 53.1618 27.6145 0001328 100.0200 260.0951 15.30194587 56210
Epoch: 4. Feb. 2026 • Age: 7 hours

Aktueller Status

Höhe 480.5 km
Geschwindigkeit 7.63 km/s
Subsatellitenpunkt 51.57°N, 118.1°E
Startdatum 11. Feb. 2025
Alter 0.9 years
Typ internet

Technische Details

Klassifizierung Payload
Masse 730.00 kg
Trockenmasse 700.00 kg
Gesamtmasse 730.00 kg
Länge 0.30 m
Durchmesser 4.10 m
Spannweite 29.00 m
Form Box + pan
Hersteller SPXS
Bus-Typ Starlink V2M
Phasenstatus In Orbit
Besitzer/Staat SPXS/US

Große Konstellationen

Loading constellations...